Regional Weather Roundup
Issued by NWS

Home | Current Version | Previous Version | Text Only | Print | Product List | Glossary On
Versions: 1 2 3 4 5 6 7 8 9 10 11 12 13 14 15 16 17 18 19 20 21 22 23 24 25 26 27 28
000
ASUS46 KSEW 242210
RWRWA

WASHINGTON REGIONAL WEATHER ROUNDUP
NATIONAL WEATHER SERVICE SEATTLE WA
300 PM PDT SUN JUL 24 2016

NOTE:"FAIR" INDICATES FEW OR NO CLOUDS BELOW 12,000 FEET WITH NO
SIGNIFICANT WEATHER AND/OR OBSTRUCTIONS TO VISIBILITY.

WAZ505-507>509-242300-
SEATTLE, TACOMA, EVERETT, AND VICINITY

CITY           SKY/WX    TMP DP  RH WIND       PRES   REMARKS
EVERETT        SUNNY     74  54  49 N8        30.10F
BOEING FIELD   SUNNY     78  53  41 NW12      30.07F
RENTON         SUNNY     79  56  45 NW10      30.06F
SEATAC AIRPORT SUNNY     78  58  49 NW10      30.09F
JBLM-MCCHORD   SUNNY     79  54  42 N8G17     30.07F
PUYALLUP       FAIR      79  54  41 CALM      30.07F
BREMERTON      SUNNY     79  55  44 N9G16     30.11F
JBLM-FT LEWIS  SUNNY     79  55  44 VRB7      30.06F
TACOMA NARROWS SUNNY     75  50  41 NE8       30.08F
$$

WAZ001-503-506-510-514-515-242300-
NORTH INTERIOR

CITY           SKY/WX    TMP DP  RH WIND       PRES   REMARKS
BELLINGHAM     SUNNY     76  54  46 W7        30.07F
FRIDAY HARBOR  SUNNY     74  52  46 SW7       30.10F
EASTSOUND      SUNNY     73  54  49 NW3       30.07F
PORT ANGELES   SUNNY     70  54  56 NW9       30.11F
EDIZ HOOK      FAIR      61  53  75 NW13G24   30.11S
PORT TOWNSEND  FAIR      75  54  46 VRB6G12   30.09F
NAS WHIDBEY    MOSUNNY   63  52  67 W9        30.13F
ARLINGTON      SUNNY     77  55  47 W12       30.08F
BURLINGTON     SUNNY     75  54  46 NW12      30.07F
$$

WAZ020-022-039-040-504-511-512-242300-
SOUTHWEST INTERIOR

CITY           SKY/WX    TMP DP  RH WIND       PRES   REMARKS
SHELTON        SUNNY     81  54  39 MISG      30.04F
OLYMPIA        SUNNY     79  51  37 NE8       30.07F
CHEHALIS       FAIR      84  57  39 VRB7G15   30.04F
KELSO          SUNNY     83  55  38 N12G17    30.02F
VANCOUVER      SUNNY     82  55  39 NW10      29.99F
SCAPPOOSE, OR  SUNNY     85  55  35 N15       29.98F
PORTLAND, OR   SUNNY     84  55  36 NW9G21    29.99F
$$

WAZ021-516-517-242300-
WASHINGTON COAST

CITY           SKY/WX    TMP DP  RH WIND       PRES   REMARKS
FORKS          SUNNY     70  59  68 NW13G21   30.11S
HOQUIAM        SUNNY     71  60  68 W14       30.08F
ASTORIA, OR    SUNNY     71  59  65 NW20      30.06F
$$

WAZ019-023-024-040-518-519-242300-
CASCADE MOUNTAINS AND COLUMBIA GORGE

CITY           SKY/WX    TMP DP  RH WIND       PRES   REMARKS
STAMPEDE PASS  SUNNY     71  52  50 VRB6      30.17S
TROUTDALE, OR  SUNNY     82  57  42 VRB6      29.98F
THE DALLES, OR SUNNY     93  39  15 E3        29.94F
$$

WAZ026-027-041>044-520-521-242300-
EAST SLOPES

CITY           SKY/WX    TMP DP  RH WIND       PRES   REMARKS
OMAK           SUNNY     88  43  20 S6G16     30.00F
WENATCHEE      SUNNY     85  48  27 E9        29.99F
ELLENSBURG     SUNNY     89  43  20 CALM      30.02F
YAKIMA         SUNNY     91  43  18 E3        30.00F
$$

WAZ028-034-035-242300-
COLUMBIA BASIN

CITY           SKY/WX    TMP DP  RH WIND       PRES   REMARKS
EPHRATA        SUNNY     85  45  24 SW7       30.01F
MOSES LAKE     SUNNY     89  45  21 S8        30.02F
PASCO          SUNNY     89  48  24 NW6       29.97F
HERMISTON, OR  SUNNY     91  48  22 MISG      29.97F
$$

WAZ036>038-242300-
NORTHEAST WASHINGTON

CITY           SKY/WX    TMP DP  RH WIND       PRES   REMARKS
SPOKANE GEIGER MOSUNNY   85  42  22 NE6       30.06F
SPOKANE FELTS  SUNNY     85  45  24 MISG      30.05F
FAIRCHILD AFB  SUNNY     83  42  23 VRB1      30.06F
COEURDALENE,ID SUNNY     82  52  34 NW5       30.04S
DEER PARK      SUNNY     83  45  26 VRB5      30.07F
$$

WAZ029>033-242300-
SOUTHEAST WASHINGTON

CITY           SKY/WX    TMP DP  RH WIND       PRES   REMARKS
PULLMAN        SUNNY     82  41  23 SW3       30.08F
LEWISTON, ID   SUNNY     90  39  16 VRB6      30.00F
WALLA WALLA    SUNNY     88  45  22 MISG      29.99F
PENDLETON, OR  SUNNY     88  41  19 NW8G18    30.00F
$$




USA.gov is the U.S. government's official web portal to all federal, state and local government web resources and services.